Location: Chiroubles
(46.1812°N, 4.6660°E)
Time: 15:47:11
(UTC+00:00)

Transit 4A - Pass Details

Date: 07 December 2020
Orbit: 864 x 980 km, 66.8° (Epoch: 26 January)

Event Time Altitude Azimuth Distance (km) Brightness Sun altitude
Rises 03:48:20 0° 147° (SSE) 3,627 11.4 -34.0°
Reaches altitude 10° 03:53:10 10° 114° (ESE) 2,710 11.0 -33.2°
Maximum altitude 03:54:48 11° 99° (E) 2,642 11.1 -32.9°
Drops below altitude 10° 03:56:25 10° 84° (E) 2,726 11.2 -32.6°
Sets 04:01:19 0° 51° (NE) 3,689 11.7 -31.8°
